Regional Weather Roundup
Issued by NWS Midland/Odessa, TX

Skip options and go directly to product.
Home | Oldest Version | Next Version | Current Version | All | Text Only | Save Text | Print | Product List | Glossary On

Skip product version selection by date and time.   
352
ASUS44 KMAF 012202
RWRMAF
MIDLAND AREA WEATHER ROUNDUP
NATIONAL WEATHER SERVICE MIDLAND TX
500 PM CDT MON SEP 01 2014

...IN SOUTHWEST TEXAS AND SOUTHEAST NEW MEXICO...

CITY           SKY/WX    TMP DP  RH WIND       PRES   REMARKS
ALPINE         MOSUNNY   97  41  14 SW3       30.04F
ANDREWS        FAIR     102  41  12 S3G9      29.86F
ARTESIA        NOT AVBL
BIG SPRING     SUNNY    102  57  22 SE9       29.86S HX 101
CARLSBAD       SUNNY    103  38  10 N5        29.85F
DRYDEN           N/A    104  60  23 E12G17    29.82F HX 105
FORT STOCKTON  MOSUNNY  102  47  15 SE13G20   29.86F
GUAD PASS      SUNNY     96  41  15 W22G29    30.08F
HOBBS          SUNNY     99  37  12 SW9       29.90F
MARFA          MOSUNNY   93  45  18 S12       30.05F
MIDLAND AIRPK  MOSUNNY  104  50  16 SE5       29.85F HX 100
MIDLAND INTL   MOSUNNY  101  53  20 VRB3      29.84F
ODESSA         SUNNY    103  42  12 SW14      29.86F
PECOS          SUNNY    105  47  14 S3        29.81F HX 101
PRESIDIO       FAIR     103  49  16 S6        29.85F HX 100
SEMINOLE       SUNNY    102  39  11 SW10G16   29.87F
SNYDER         SUNNY    100  62  28 S6        29.83F HX 101
WINK           SUNNY    104  41  11 SW9       29.82F
$$
...OTHER STATIONS IN TEXAS...

CITY           SKY/WX    TMP DP  RH WIND       PRES   REMARKS
ABILENE        SUNNY    100  60  26 S14G24    29.82F HX 100
AMARILLO       SUNNY     93  56  28 E3        29.91F
AUSTIN         MOSUNNY   98  67  36 SE13      29.84F HX 102
BROWNSVILLE    MOSUNNY   92  75  57 SE17      29.85F HX 103
CORPUS CHRISTI MOSUNNY   90  75  61 SE16      29.86F HX 100
DALLAS FTW     MOSUNNY   94  68  42 S17G24    29.83F
DEL RIO        SUNNY    101  65  30 SE18G25   29.79F HX 104
EL PASO        MOSUNNY   98  38  12 W14G22    29.93F
HOUSTON INT    PTSUNNY   88  75  66 SE12      29.89F
LUBBOCK        MOSUNNY  104  48  15 SW14G22   29.85F HX 100
SAN ANGELO     SUNNY    100  61  27 S12       29.83F HX 101
SAN ANTONIO    MOSUNNY   96  65  35 S14       29.85F
WACO           MOSUNNY   97  65  34 SE17G23   29.84F
WICHITA FALLS  NOT AVBL
$$
...OTHER LOCATIONS IN NEW MEXICO...

CITY           SKY/WX    TMP DP  RH WIND       PRES   REMARKS
ALAMAGORDO     SUNNY     95  34  11 W9G21     29.97F
ALBUQUERQUE    MOSUNNY   90  36  14 W8G17     30.04F
CANNON AFB     SUNNY     97  41  14 SW10      29.94S
CLOVIS           N/A     97  43  15 W8G16     29.95F
HOLLOMAN AFB   SUNNY     96  33  11 W3        29.94F
ROSWELL        SUNNY     99  41  13 E12       29.88F
RUIDOSO        SUNNY     84  37  18 N13G21    30.18F
SANTA FE       SUNNY     89  30  12 W14G20    30.09F
TRUTH OR CONSE SUNNY     94  34  12 SE8G20    29.99F
TUCUMCARI      SUNNY     97  39  13 S5        29.90F
$$

USA.gov is the U.S. government's official web portal to all federal, state and local government web resources and services.